"Timestamp","TZ","WindDir_Mean (deg)","WindSpd_Mean (km/h)","WindSpd_Min (km/h)","WindSpd_Max (km/h)","Temp_Mean (deg)","RH_Mean (%)","MSLP_Mean (hPa)","Rain_Acc (mm)","Rain_Intensity (mm/h)","Hail_Acc (hits/cm2)","Hail_Intensity (hits/cm2hr)","Solar_Mean (W/m2)"
2020/12/27 00:00:00.008,n,125,6.48,5.76,7.2,21.7,68.8,1017.42,0,0,0,0,0.027008
2020/12/27 00:01:00.000,n,129,5.4,5.04,6.12,21.7,69,1017.42,0,0,0,0,0.034828
2020/12/27 00:02:00.002,n,128,5.76,4.32,6.12,21.7,68.9,1017.42,0,0,0,0,0.027008
2020/12/27 00:03:00.000,n,141,3.6,3.24,4.32,21.7,69,1017.42,0,0,0,0,0.030479
2020/12/27 00:04:00.000,n,139,6.48,5.76,7.2,21.6,69,1017.42,0,0,0,0,0.027885
2020/12/27 00:05:00.008,n,130,3.96,2.88,5.4,21.6,69.1,1017.42,0,0,0,0,0.033951
2020/12/27 00:06:00.006,n,141,4.68,4.32,5.04,21.6,69.2,1017.42,0,0,0,0,0.030479
2020/12/27 00:07:00.002,n,140,6.12,5.76,6.48,21.6,69.2,1017.42,0,0,0,0,0.027008
2020/12/27 00:08:00.000,n,124,4.68,3.96,5.4,21.6,69.3,1017.42,0,0,0,0,0.027008
2020/12/27 00:09:00.013,n,160,3.24,2.52,4.68,21.6,69.3,1017.42,0,0,0,0,0.030479
2020/12/27 00:10:00.000,n,139,6.12,5.76,6.48,21.6,69.3,1017.32,0,0,0,0,0.026131
2020/12/27 00:11:00.000,n,147,6.48,6.12,6.84,21.6,69.3,1017.32,0,0,0,0,0.025291
2020/12/27 00:12:00.005,n,131,5.76,5.04,6.12,21.6,69.3,1017.32,0,0,0,0,0.025291
2020/12/27 00:13:00.003,n,139,3.96,3.6,4.68,21.6,69.3,1017.32,0,0,0,0,0.032234
2020/12/27 00:14:00.000,n,147,4.32,3.6,4.68,21.6,69.3,1017.32,0,0,0,0,0.023499
2020/12/27 00:15:00.000,n,133,4.32,3.96,5.04,21.5,69.3,1017.32,0,0,0,0,0.025291
2020/12/27 00:16:00.009,n,150,5.04,3.96,5.76,21.5,69.4,1017.32,0,0,0,0,0.024376
2020/12/27 00:17:00.007,n,124,1.8,1.44,2.52,21.5,69.4,1017.22,0,0,0,0,0.028725
2020/12/27 00:18:00.004,n,141,4.68,2.88,5.4,21.5,69.5,1017.22,0,0,0,0,0.022659
2020/12/27 00:19:00.002,n,123,5.76,5.04,6.48,21.5,69.5,1017.22,0,0,0,0,0.020905
2020/12/27 00:20:00.000,n,142,6.48,5.76,6.84,21.5,69.5,1017.22,0,0,0,0,0.024376
2020/12/27 00:21:00.000,n,143,5.76,5.04,6.48,21.5,69.6,1017.22,0,0,0,0,0.023499
2020/12/27 00:22:00.000,n,128,3.6,2.88,4.32,21.5,69.7,1017.22,0,0,0,0,0.018272
2020/12/27 00:23:00.000,n,131,2.16,1.8,2.88,21.5,69.7,1017.12,0,0,0,0,0.016556
2020/12/27 00:24:00.008,n,138,5.04,4.68,5.04,21.5,69.8,1017.12,0,0,0,0,0.021782
2020/12/27 00:25:00.006,n,125,2.88,2.16,3.96,21.5,69.8,1017.12,0,0,0,0,0.017433
2020/12/27 00:26:00.003,n,113,3.6,3.6,3.96,21.5,69.8,1017.12,0,0,0,0,0.025291
2020/12/27 00:27:00.000,n,123,3.6,3.24,3.96,21.5,69.9,1017.12,0,0,0,0,0.023499
2020/12/27 00:28:00.000,n,117,3.96,3.6,3.96,21.5,69.9,1017.12,0,0,0,0,0.033951
2020/12/27 00:29:00.000,n,130,3.96,3.6,4.32,21.5,70,1017.12,0,0,0,0,0.030479
2020/12/27 00:30:00.000,n,109,2.16,1.08,2.52,21.5,70,1017.12,0,0,0,0,0.028725
2020/12/27 00:31:00.002,n,128,5.4,4.68,6.12,21.4,69.9,1017.12,0,0,0,0,0.028725
2020/12/27 00:32:00.000,n,122,3.24,2.52,3.24,21.4,69.9,1017.12,0,0,0,0,0.023499
2020/12/27 00:33:00.000,n,119,4.32,3.96,4.68,21.4,70,1017.12,0,0,0,0,0.030479
2020/12/27 00:34:00.009,n,123,4.32,3.96,4.68,21.4,70,1017.12,0,0,0,0,0.028725
2020/12/27 00:35:00.006,n,106,2.88,2.52,3.24,21.4,70,1017.12,0,0,0,0,0.02697
2020/12/27 00:36:00.003,n,110,5.04,4.68,5.4,21.4,69.9,1017.12,0,0,0,0,0.029602
2020/12/27 00:37:00.001,n,135,3.6,3.24,3.96,21.4,70.1,1017.02,0,0,0,0,0.032196
2020/12/27 00:38:00.000,n,322,0.36,0,1.08,21.4,70,1017.02,0,0,0,0,0.027847
2020/12/27 00:39:00.000,n,144,3.6,3.6,3.96,21.4,69.8,1017.02,0,0,0,0,0.021782
2020/12/27 00:40:00.000,n,141,5.04,4.32,5.4,21.4,69.9,1017.02,0,0,0,0,0.026131
2020/12/27 00:41:00.007,n,120,4.32,3.96,4.68,21.4,70,1017.02,0,0,0,0,0.025253
2020/12/27 00:42:00.004,n,135,3.24,3.24,3.6,21.4,70,1016.92,0,0,0,0,0.025253
2020/12/27 00:43:00.001,n,127,2.88,2.52,2.88,21.4,69.9,1016.92,0,0,0,0,0.024376
2020/12/27 00:44:00.013,n,129,4.68,3.96,5.04,21.4,69.9,1016.92,0,0,0,0,0.024376
2020/12/27 00:45:00.010,n,131,4.32,3.96,4.68,21.3,70.1,1016.92,0,0,0,0,0.025253
2020/12/27 00:46:00.000,n,133,2.88,2.52,3.6,21.3,70,1016.92,0,0,0,0,0.025253
2020/12/27 00:47:00.000,n,144,3.24,3.24,3.24,21.3,70,1016.92,0,0,0,0,0.020905
2020/12/27 00:48:00.002,n,145,3.6,3.6,3.96,21.3,70,1016.82,0,0,0,0,0.021782
2020/12/27 00:49:00.000,n,149,3.24,2.88,3.24,21.3,70,1016.82,0,0,0,0,0.027847
2020/12/27 00:50:00.000,n,146,2.52,2.52,2.52,21.3,70,1016.82,0,0,0,0,0.021782
2020/12/27 00:51:00.010,n,158,2.52,2.16,2.52,21.3,70,1016.82,0,0,0,0,0.022621
2020/12/27 00:52:00.006,n,139,3.6,3.6,3.96,21.3,70,1016.82,0,0,0,0,0.01915
2020/12/27 00:53:00.003,n,152,2.52,2.16,2.88,21.3,70,1016.82,0,0,0,0,0.020027
2020/12/27 00:54:00.001,n,156,3.24,3.24,3.6,21.3,69.9,1016.82,0,0,0,0,0.020905
2020/12/27 00:55:00.000,n,166,2.16,1.08,2.52,21.3,70,1016.82,0,0,0,0,0.022621
2020/12/27 00:56:00.000,n,166,2.16,1.8,2.52,21.3,70,1016.72,0,0,0,0,0.021782
2020/12/27 00:57:00.000,n,165,3.24,2.88,3.24,21.3,70.1,1016.72,0,0,0,0,0.013924
2020/12/27 00:58:00.006,n,175,4.32,3.96,4.68,21.3,70.2,1016.72,0,0,0,0,0.02697
2020/12/27 00:59:00.003,n,196,3.24,2.88,3.6,21.3,70.3,1016.72,0,0,0,0,0.027847
2020/12/27 01:00:00.001,n,201,3.6,3.24,3.96,21.3,70.3,1016.72,0,0,0,0,0.032196
2020/12/27 01:01:00.000,n,194,3.6,3.24,3.96,21.3,70.4,1016.72,0,0,0,0,0.028725
2020/12/27 01:02:00.012,n,176,5.4,5.04,5.4,21.2,70.2,1016.62,0,0,0,0,0.033951
2020/12/27 01:03:00.009,n,168,5.04,4.68,5.4,21.2,70.2,1016.62,0,0,0,0,0.035706
2020/12/27 01:04:00.000,n,160,3.24,2.52,3.6,21.2,70.1,1016.62,0,0,0,0,0.030479
2020/12/27 01:05:00.003,n,208,2.88,2.88,3.24,21.2,70.2,1016.62,0,0,0,0,0.027847
2020/12/27 01:06:00.001,n,241,2.16,1.44,2.52,21.2,70.1,1016.72,0,0,0,0,0.031319
2020/12/27 01:07:00.000,n,175,3.24,2.88,3.96,21.2,70.1,1016.72,0,0,0,0,0.032196
2020/12/27 01:08:00.000,n,158,5.4,4.68,5.76,21.2,70.2,1016.72,0,0,0,0,0.031319
2020/12/27 01:09:00.009,n,189,4.32,3.6,5.04,21.2,70.3,1016.72,0,0,0,0,0.02697
2020/12/27 01:10:00.007,n,164,5.04,4.68,5.4,21.2,70.3,1016.72,0,0,0,0,0.029602
2020/12/27 01:11:00.004,n,174,4.32,3.96,4.68,21.2,70,1016.72,0,0,0,0,0.024376
2020/12/27 01:12:00.002,n,169,4.32,3.96,4.68,21.2,70.2,1016.72,0,0,0,0,0.027847
2020/12/27 01:13:00.000,n,170,4.68,4.32,5.04,21.2,70.5,1016.72,0,0,0,0,0.027847
2020/12/27 01:14:00.000,n,160,4.32,3.96,4.68,21.2,70.4,1016.62,0,0,0,0,0.02697
2020/12/27 01:15:00.000,n,163,3.24,2.88,3.6,21.2,70.7,1016.62,0,0,0,0,0.029602
2020/12/27 01:16:00.000,n,159,3.6,3.6,3.96,21.2,70.7,1016.62,0,0,0,0,0.02697
2020/12/27 01:17:00.005,n,172,3.24,2.88,3.24,21.2,70.8,1016.62,0,0,0,0,0.022621
2020/12/27 01:18:00.002,n,158,1.8,1.44,1.8,21.1,70.8,1016.62,0,0,0,0,0.020027
2020/12/27 01:19:00.000,n,196,1.44,1.08,1.8,21.1,70.7,1016.62,0,0,0,0,0.023499
2020/12/27 01:20:00.013,n,193,1.08,1.08,1.08,21.1,70.7,1016.62,0,0,0,0,0.02697
2020/12/27 01:21:00.011,n,164,1.08,0.72,1.44,21,70.8,1016.62,0,0,0,0,0.029602
2020/12/27 01:22:00.000,n,179,1.8,1.44,1.8,21,70.9,1016.62,0,0,0,0,0.018272
2020/12/27 01:23:00.000,n,148,1.8,1.8,2.16,21,70.7,1016.62,0,0,0,0,0.020027
2020/12/27 01:24:00.003,n,165,2.16,1.8,2.88,21,70.8,1016.62,0,0,0,0,0.025253
2020/12/27 01:25:00.001,n,170,2.88,2.52,2.88,21,70.7,1016.62,0,0,0,0,0.022621
2020/12/27 01:26:00.000,n,194,1.8,1.8,1.8,21,70.6,1016.62,0,0,0,0,0.02697
2020/12/27 01:27:00.011,n,154,0.36,0.36,0.36,21,70.6,1016.62,0,0,0,0,0.02697
2020/12/27 01:28:00.008,n,184,2.88,2.52,2.88,21,70.7,1016.62,0,0,0,0,0.027847
2020/12/27 01:29:00.005,n,194,2.16,2.16,2.52,21,70.8,1016.62,0,0,0,0,0.026131
2020/12/27 01:30:00.002,n,180,2.88,2.52,3.24,20.9,70.8,1016.72,0,0,0,0,0.025253
2020/12/27 01:31:00.000,n,196,3.24,3.24,3.6,20.9,70.9,1016.72,0,0,0,0,0.024376
2020/12/27 01:32:00.000,n,225,3.24,2.88,3.6,20.9,71,1016.72,0,0,0,0,0.01915
2020/12/27 01:33:00.000,n,217,3.24,3.24,3.6,20.9,70.9,1016.72,0,0,0,0,0.022621
2020/12/27 01:34:00.006,n,253,2.16,2.16,2.52,20.9,70.8,1016.72,0,0,0,0,0.023499
2020/12/27 01:35:00.003,n,233,2.88,2.52,2.88,20.9,71,1016.72,0,0,0,0,0.018272
2020/12/27 01:36:00.000,n,246,1.44,1.08,1.8,20.9,71,1016.72,0,0,0,0,0.020027
2020/12/27 01:37:00.000,n,191,1.08,0.36,1.44,20.8,71,1016.72,0,0,0,0,0.020027
2020/12/27 01:38:00.011,n,241,1.08,1.08,1.08,20.8,71.1,1016.62,0,0,0,0,0.020905
2020/12/27 01:39:00.008,n,182,0.36,0.36,1.08,20.8,71.2,1016.62,0,0,0,0,0.01915
2020/12/27 01:40:00.000,n,189,0.36,0.36,0.72,20.8,71.2,1016.62,0,0,0,0,0.018272
2020/12/27 01:41:00.002,n,180,1.44,1.08,2.16,20.8,71.2,1016.62,0,0,0,0,0.018272
2020/12/27 01:42:00.000,n,165,1.44,0.72,2.52,20.8,71.6,1016.62,0,0,0,0,0.018272
2020/12/27 01:43:00.000,n,177,2.16,1.44,2.52,20.8,71.8,1016.62,0,0,0,0,0.01915
2020/12/27 01:44:00.000,n,160,1.8,1.08,2.52,20.8,72.1,1016.62,0,0,0,0,0.017395
2020/12/27 01:45:00.008,n,140,1.8,1.44,2.16,20.8,72.2,1016.62,0,0,0,0,0.016518
2020/12/27 01:46:00.005,n,156,3.96,2.88,3.96,20.8,72.3,1016.52,0,0,0,0,0.018272
2020/12/27 01:47:00.002,n,91,0.72,0.36,1.44,20.8,72.8,1016.52,0,0,0,0,0.016518
2020/12/27 01:48:00.016,n,232,1.08,0.72,1.44,20.8,72.7,1016.52,0,0,0,0,0.018272
2020/12/27 01:49:00.000,n,230,1.08,0,1.44,20.8,72.7,1016.52,0,0,0,0,0.018272
2020/12/27 01:50:00.000,n,246,1.44,0.72,1.8,20.8,72.9,1016.52,0,0,0,0,0.027008
2020/12/27 01:51:00.000,n,110,2.52,2.16,2.88,20.7,72.8,1016.52,0,0,0,0,0.034866
2020/12/27 01:52:00.004,n,108,2.16,2.16,2.52,20.7,73.3,1016.52,0,0,0,0,0.03746
2020/12/27 01:53:00.001,n,155,1.08,0.72,1.44,20.7,73.1,1016.52,0,0,0,0,0.034866
2020/12/27 01:54:00.000,n,72,2.16,1.8,2.88,20.7,73.4,1016.52,0,0,0,0,0.032234
2020/12/27 01:55:00.011,n,84,1.44,1.08,2.16,20.7,73.3,1016.42,0,0,0,0,0.028725
2020/12/27 01:56:00.008,n,115,0.36,0,0.72,20.6,73.2,1016.42,0,0,0,0,0.033112
2020/12/27 01:57:00.005,n,141,2.16,1.8,2.88,20.6,73.5,1016.42,0,0,0,0,0.031357
2020/12/27 01:58:00.000,n,148,3.24,2.52,4.32,20.6,73.9,1016.42,0,0,0,0,0.033112
2020/12/27 01:59:00.000,n,139,1.8,1.08,2.16,20.6,74,1016.42,0,0,0,0,0.030518
2020/12/27 02:00:00.000,n,182,1.08,0.36,1.8,20.6,74.1,1016.32,0,0,0,0,0.02964
2020/12/27 02:01:00.000,n,21,0.72,0.36,1.08,20.6,74.2,1016.42,0,0,0,0,0.032234
2020/12/27 02:02:00.008,n,342,1.08,0.72,1.44,20.6,74,1016.42,0,0,0,0,0.033112
2020/12/27 02:03:00.005,n,253,2.88,2.52,2.88,20.6,74,1016.42,0,0,0,0,0.030518
2020/12/27 02:04:00.003,n,258,2.52,2.52,2.52,20.5,74.2,1016.32,0,0,0,0,0.033951
2020/12/27 02:05:00.000,n,73,1.08,1.08,1.44,20.5,74.3,1016.32,0,0,0,0,0.028725
2020/12/27 02:06:00.013,n,67,0.72,0.36,1.44,20.5,74.4,1016.32,0,0,0,0,0.02964
2020/12/27 02:07:00.000,n,265,3.96,3.6,4.32,20.5,74.5,1016.32,0,0,0,0,0.032234
2020/12/27 02:08:00.000,n,255,3.96,3.24,3.96,20.5,74.7,1016.32,0,0,0,0,0.026131
2020/12/27 02:09:00.005,n,240,3.96,3.96,4.32,20.5,74.8,1016.22,0,0,0,0,0.027885
2020/12/27 02:10:00.002,n,262,2.16,1.8,2.88,20.5,75,1016.22,0,0,0,0,0.030518
2020/12/27 02:11:00.000,n,246,4.32,3.96,5.04,20.4,75,1016.22,0,0,0,0,0.028725
2020/12/27 02:12:00.000,n,222,2.16,1.8,2.52,20.4,75.5,1016.22,0,0,0,0,0.027885
2020/12/27 02:13:00.010,n,232,3.24,3.24,3.6,20.4,75.3,1016.22,0,0,0,0,0.030518
2020/12/27 02:14:00.007,n,258,5.4,4.68,5.76,20.4,75.4,1016.22,0,0,0,0,0.027008
2020/12/27 02:15:00.004,n,231,2.88,2.52,3.24,20.3,75.6,1016.22,0,0,0,0,0.026131
2020/12/27 02:16:00.000,n,224,3.24,2.52,3.6,20.3,75.9,1016.22,0,0,0,0,0.030518
2020/12/27 02:17:00.000,n,215,0.72,0.36,0.72,20.3,75.7,1016.22,0,0,0,0,0.025291
2020/12/27 02:18:00.000,n,231,1.44,0.72,1.8,20.3,75.7,1016.22,0,0,0,0,0.028725
2020/12/27 02:19:00.000,n,278,1.8,1.08,2.16,20.2,75.7,1016.22,0,0,0,0,0.027885
2020/12/27 02:20:00.000,n,286,3.24,2.52,3.6,20.2,76.2,1016.22,0,0,0,0,0.025291
2020/12/27 02:21:00.007,n,256,1.44,1.08,1.8,20.2,76.1,1016.22,0,0,0,0,0.023537
2020/12/27 02:22:00.004,n,227,0.36,0.36,0.72,20.2,75.9,1016.22,0,0,0,0,0.023537
2020/12/27 02:23:00.001,n,335,2.16,1.44,2.52,20.2,75.9,1016.22,0,0,0,0,0.027008
2020/12/27 02:24:00.015,n,300,1.8,0.72,2.88,20.2,75.9,1016.22,0,0,0,0,0.027885
2020/12/27 02:25:00.000,n,70,1.44,0.36,2.88,20.2,76.1,1016.22,0,0,0,0,0.026131
2020/12/27 02:26:00.000,n,121,0.72,0.72,1.44,20.2,75.9,1016.22,0,0,0,0,0.01915
2020/12/27 02:27:00.000,n,258,3.96,3.6,3.96,20.2,75.8,1016.12,0,0,0,0,0.022659
2020/12/27 02:28:00.004,n,241,2.88,2.52,3.6,20.1,75.7,1016.12,0,0,0,0,0.020065
2020/12/27 02:29:00.002,n,221,2.88,2.52,2.88,20.1,75.8,1016.12,0,0,0,0,0.023537
2020/12/27 02:30:00.000,n,249,5.4,5.04,5.76,20.1,75.8,1016.12,0,0,0,0,0.021782
2020/12/27 02:31:00.012,n,245,2.16,1.8,2.52,20.1,75.8,1016.12,0,0,0,0,0.020065
2020/12/27 02:32:00.009,n,232,2.52,2.52,2.88,20.1,75.8,1016.22,0,0,0,0,0.023537
2020/12/27 02:33:00.006,n,238,1.8,1.44,2.16,20.1,75.8,1016.22,0,0,0,0,0.020943
2020/12/27 02:34:00.000,n,119,1.8,1.44,2.16,20,75.8,1016.22,0,0,0,0,0.020943
2020/12/27 02:35:00.000,n,116,0.72,0,1.8,20,76.2,1016.22,0,0,0,0,0.01915
2020/12/27 02:36:00.000,n,125,1.44,1.08,2.16,20,76.2,1016.22,0,0,0,0,0.021782
2020/12/27 02:37:00.000,n,287,1.44,0.36,2.16,20.1,76.1,1016.12,0,0,0,0,0.020065
2020/12/27 02:38:00.000,n,276,2.88,2.16,4.68,20.1,76.4,1016.12,0,0,0,0,0.030441
2020/12/27 02:39:00.006,n,273,2.52,1.44,2.88,20.1,76.2,1016.12,0,0,0,0,0.036545
2020/12/27 02:40:00.004,n,173,2.16,1.8,3.24,20.1,76.1,1016.12,0,0,0,0,0.033951
2020/12/27 02:41:00.001,n,345,0.72,0.36,1.44,20.1,76.3,1016.12,0,0,0,0,0.031319
2020/12/27 02:42:00.015,n,272,0.72,0.36,1.44,20.1,76.5,1016.12,0,0,0,0,0.029602
2020/12/27 02:43:00.000,n,178,0.72,0.36,1.44,20.1,76.3,1016.12,0,0,0,0,0.033035
2020/12/27 02:44:00.000,n,278,2.88,2.16,3.6,20,76.3,1016.12,0,0,0,0,0.035667
2020/12/27 02:45:00.000,n,256,3.24,2.88,3.6,20,76.1,1016.02,0,0,0,0,0.035667
2020/12/27 02:46:00.003,n,267,3.24,2.52,3.6,20,76.1,1016.02,0,0,0,0,0.035667
2020/12/27 02:47:00.000,n,268,2.52,2.16,2.88,20,76,1016.02,0,0,0,0,0.033951
2020/12/27 02:48:00.000,n,272,3.6,2.52,3.96,19.9,75.9,1015.92,0,0,0,0,0.029602
2020/12/27 02:49:00.011,n,213,2.16,1.44,2.52,19.9,76.1,1015.92,0,0,0,0,0.033951
2020/12/27 02:50:00.008,n,256,2.52,2.16,2.88,19.9,76.1,1015.92,0,0,0,0,0.03479
2020/12/27 02:51:00.005,n,268,3.24,3.24,3.6,19.9,76,1015.92,0,0,0,0,0.035667
2020/12/27 02:52:00.000,n,265,3.24,2.88,3.24,19.9,75.9,1015.92,0,0,0,0,0.033951
2020/12/27 02:53:00.000,n,283,2.16,1.8,2.52,19.9,75.8,1015.92,0,0,0,0,0.031319
2020/12/27 02:54:00.000,n,257,2.88,2.52,3.24,19.8,75.9,1015.92,0,0,0,0,0.03479
2020/12/27 02:55:00.000,n,251,2.88,2.16,3.6,19.8,76.7,1015.92,0,0,0,0,0.033035
2020/12/27 02:56:00.008,n,248,2.88,2.16,3.96,19.9,76.6,1015.92,0,0,0,0,0.031319
2020/12/27 02:57:00.005,n,274,1.44,0.36,3.24,19.9,76.3,1015.92,0,0,0,0,0.033035
2020/12/27 02:58:00.002,n,232,3.96,3.6,4.32,19.8,76.1,1015.92,0,0,0,0,0.029602
2020/12/27 02:59:00.000,n,240,3.96,3.24,5.04,19.8,76.4,1015.92,0,0,0,0,0.027809
2020/12/27 03:00:00.013,n,238,1.8,1.08,2.88,19.8,76.5,1015.92,0,0,0,0,0.031319
2020/12/27 03:01:00.000,n,251,3.24,2.88,3.6,19.8,76.3,1015.92,0,0,0,0,0.031319
2020/12/27 03:02:00.000,n,246,0.72,0.72,1.08,19.8,76.9,1016.02,0,0,0,0,0.033035
2020/12/27 03:03:00.005,n,287,2.88,2.52,2.88,19.8,76.5,1016.02,0,0,0,0,0.033035
2020/12/27 03:04:00.002,n,266,2.88,2.16,3.96,19.8,76.8,1016.02,0,0,0,0,0.031319
2020/12/27 03:05:00.000,n,221,2.88,1.8,3.96,19.8,77,1016.02,0,0,0,0,0.030441
2020/12/27 03:06:00.000,n,267,3.24,2.52,3.96,19.8,76.8,1016.02,0,0,0,0,0.029602
2020/12/27 03:07:00.010,n,84,0.72,0.36,1.44,19.8,76.9,1016.02,0,0,0,0,0.02697
2020/12/27 03:08:00.007,n,306,0.72,0.72,1.08,19.8,76.8,1016.02,0,0,0,0,0.029602
2020/12/27 03:09:00.004,n,72,0.72,0.36,0.72,19.8,76.8,1016.02,0,0,0,0,0.02697
2020/12/27 03:10:00.001,n,188,1.8,1.44,2.16,19.8,76.6,1016.02,0,0,0,0,0.028725
2020/12/27 03:11:00.000,n,39,1.8,1.8,2.16,19.8,77,1016.02,0,0,0,0,0.029602
2020/12/27 03:12:00.000,n,233,0.72,0.36,0.72,19.8,76.9,1016.02,0,0,0,0,0.021744
2020/12/27 03:13:00.000,n,58,1.8,1.08,2.52,19.8,76.9,1016.02,0,0,0,0,0.028725
2020/12/27 03:14:00.006,n,37,2.16,1.8,2.52,19.8,76.7,1016.02,0,0,0,0,0.025215
2020/12/27 03:15:00.003,n,197,1.44,1.44,1.8,19.8,76.6,1016.02,0,0,0,0,0.02697
2020/12/27 03:16:00.000,n,82,1.08,0,1.44,19.8,76.7,1016.02,0,0,0,0,0.026093
2020/12/27 03:17:00.013,n,182,4.32,3.96,4.68,19.7,76.8,1016.02,0,0,0,0,0.01915
2020/12/27 03:18:00.010,n,125,1.8,1.44,2.16,19.7,76.7,1016.02,0,0,0,0,0.021744
2020/12/27 03:19:00.000,n,150,1.44,1.08,1.44,19.7,76.7,1016.02,0,0,0,0,0.025215
2020/12/27 03:20:00.000,n,219,1.8,1.44,2.52,19.7,76.9,1016.02,0,0,0,0,0.024376
2020/12/27 03:21:00.000,n,117,1.44,0,2.16,19.7,77.2,1016.02,0,0,0,0,0.025215
2020/12/27 03:22:00.000,n,85,1.8,1.44,2.88,19.7,77.1,1016.02,0,0,0,0,0.024376
2020/12/27 03:23:00.000,n,343,2.52,0.72,3.96,19.7,77.4,1016.02,0,0,0,0,0.02346
2020/12/27 03:24:00.009,n,131,2.88,2.16,3.24,19.7,77.3,1016.02,0,0,0,0,0.024376
2020/12/27 03:25:00.006,n,224,2.16,1.8,2.88,19.7,77.3,1016.02,0,0,0,0,0.021744
2020/12/27 03:26:00.003,n,231,2.52,1.44,2.88,19.7,77.2,1016.02,0,0,0,0,0.02346
2020/12/27 03:27:00.001,n,262,2.16,1.8,2.88,19.7,77.4,1016.02,0,0,0,0,0.022621
2020/12/27 03:28:00.000,n,283,1.8,1.44,2.52,19.7,77.8,1016.02,0,0,0,0,0.022621
2020/12/27 03:29:00.000,n,311,2.16,0.72,4.32,19.7,77.6,1016.02,0,0,0,0,0.024376
2020/12/27 03:30:00.000,n,140,5.4,4.32,6.12,19.7,77.5,1016.02,0,0,0,0,0.017395
2020/12/27 03:31:00.007,n,273,1.44,0.72,2.16,19.6,77.5,1016.02,0,0,0,0,0.024376
2020/12/27 03:32:00.004,n,246,2.16,1.8,2.88,19.6,77.7,1016.02,0,0,0,0,0.020866
2020/12/27 03:33:00.001,n,180,0.72,0,0.72,19.6,77.8,1016.02,0,0,0,0,0.026093
2020/12/27 03:34:00.000,n,255,1.8,1.8,2.16,19.7,77.6,1016.02,0,0,0,0,0.02346
2020/12/27 03:35:00.012,n,48,0.72,0,1.08,19.6,77.5,1016.02,0,0,0,0,0.02346
2020/12/27 03:36:00.009,n,267,2.16,1.8,3.24,19.6,77.7,1016.02,0,0,0,0,0.02346
2020/12/27 03:37:00.000,n,155,2.88,0.36,4.32,19.6,77.7,1016.02,0,0,0,0,0.026093
2020/12/27 03:38:00.003,n,57,1.44,0.72,2.16,19.6,77.7,1016.02,0,0,0,0,0.01915
2020/12/27 03:39:00.000,n,94,1.08,0.72,1.44,19.6,77.7,1016.02,0,0,0,0,0.020866
2020/12/27 03:40:00.000,n,52,1.8,1.44,2.16,19.6,77.5,1016.02,0,0,0,0,0.020866
2020/12/27 03:41:00.000,n,78,1.08,0,1.8,19.6,77.7,1016.02,0,0,0,0,0.026093
2020/12/27 03:42:00.007,n,112,1.08,0.72,1.44,19.6,77.6,1016.02,0,0,0,0,0.03479
2020/12/27 03:43:00.000,n,282,2.52,2.16,2.52,19.6,77.5,1016.02,0,0,0,0,0.037422
2020/12/27 03:44:00.013,n,339,2.52,1.8,3.24,19.6,77.6,1016.02,0,0,0,0,0.035667
2020/12/27 03:45:00.010,n,278,3.24,1.8,4.32,19.6,77.9,1016.02,0,0,0,0,0.033951
2020/12/27 03:46:00.000,n,246,2.16,1.8,2.88,19.6,78.1,1016.02,0,0,0,0,0.036545
2020/12/27 03:47:00.000,n,185,1.8,1.08,2.52,19.6,77.9,1016.02,0,0,0,0,0.035667
2020/12/27 03:48:00.004,n,197,0.72,0.36,1.08,19.6,77.8,1016.02,0,0,0,0,0.036545
2020/12/27 03:49:00.001,n,224,2.52,2.16,2.88,19.5,77.8,1016.02,0,0,0,0,0.039177
2020/12/27 03:50:00.000,n,287,1.08,0.72,1.44,19.5,78.4,1016.02,0,0,0,0,0.033951
2020/12/27 03:51:00.011,n,219,2.16,1.8,2.52,19.5,78,1016.02,0,0,0,0,0.036545
2020/12/27 03:52:00.009,n,265,3.6,2.88,3.96,19.6,78.6,1016.02,0,0,0,0,0.033073
2020/12/27 03:53:00.005,n,95,1.44,0.36,2.52,19.5,78.3,1016.02,0,0,0,0,0.033073
2020/12/27 03:54:00.002,n,295,1.08,0.36,2.52,19.5,78.1,1016.02,0,0,0,0,0.035667
2020/12/27 03:55:00.000,n,132,1.44,1.08,1.8,19.5,78.1,1016.02,0,0,0,0,0.037422
2020/12/27 03:56:00.000,n,126,1.44,0.72,1.8,19.5,78,1016.02,0,0,0,0,0.032196
2020/12/27 03:57:00.000,n,256,3.24,2.88,3.6,19.5,78.2,1016.02,0,0,0,0,0.033073
2020/12/27 03:58:00.000,n,328,1.44,0.72,2.16,19.5,78.5,1016.02,0,0,0,0,0.033951
2020/12/27 03:59:00.005,n,19,1.08,0,1.8,19.5,78.3,1016.02,0,0,0,0,0.031319
2020/12/27 04:00:00.002,n,260,1.08,0.72,1.08,19.5,78.3,1016.02,0,0,0,0,0.033073
2020/12/27 04:01:00.000,n,61,0.72,0.36,0.72,19.5,78.2,1016.02,0,0,0,0,0.029602
2020/12/27 04:02:00.013,n,95,2.16,1.44,2.52,19.5,78.2,1016.02,0,0,0,0,0.036545
2020/12/27 04:03:00.010,n,224,1.44,1.08,2.16,19.4,78.1,1016.02,0,0,0,0,0.033073
2020/12/27 04:04:00.000,n,86,1.08,0.36,1.44,19.4,78.2,1016.02,0,0,0,0,0.037422
2020/12/27 04:05:00.000,n,113,1.08,0.36,1.44,19.4,78.1,1016.02,0,0,0,0,0.033073
2020/12/27 04:06:00.002,n,148,2.52,1.44,2.88,19.4,78.2,1016.02,0,0,0,0,0.037422
2020/12/27 04:07:00.000,n,224,2.52,1.8,2.52,19.4,78.2,1016.02,0,0,0,0,0.028725
2020/12/27 04:08:00.000,n,78,1.44,1.08,1.8,19.4,78.2,1016.02,0,0,0,0,0.037422
2020/12/27 04:09:00.009,n,127,1.44,0.36,2.88,19.3,78.4,1016.02,0,0,0,0,0.029602
2020/12/27 04:10:00.006,n,176,1.8,1.44,2.16,19.4,78.4,1016.02,0,0,0,0,0.028725
2020/12/27 04:11:00.004,n,270,2.88,1.8,3.24,19.3,78.6,1016.02,0,0,0,0,0.037422
2020/12/27 04:12:00.001,n,258,3.24,2.88,3.96,19.3,78.5,1016.02,0,0,0,0,0.033073
2020/12/27 04:13:00.000,n,252,2.16,1.44,2.52,19.3,78.5,1016.02,0,0,0,0,0.028725
2020/12/27 04:14:00.000,n,273,2.88,2.52,3.24,19.3,78.6,1016.02,0,0,0,0,0.033073
2020/12/27 04:15:00.000,n,238,1.44,1.08,2.16,19.3,79,1016.02,0,0,0,0,0.033951
2020/12/27 04:16:00.005,n,195,0.72,0,1.8,19.3,79,1016.02,0,0,0,0,0.03479
2020/12/27 04:17:00.003,n,215,1.08,0.36,1.8,19.3,78.9,1016.12,0,0,0,0,0.035667
2020/12/27 04:18:00.000,n,240,1.08,0.72,1.08,19.3,78.8,1016.02,0,0,0,0,0.033073
2020/12/27 04:19:00.012,n,247,1.44,1.08,1.8,19.3,78.7,1016.02,0,0,0,0,0.037422
2020/12/27 04:20:00.009,n,259,2.16,1.44,2.52,19.3,78.7,1016.02,0,0,0,0,0.036545
2020/12/27 04:21:00.006,n,229,1.44,1.44,1.8,19.2,78.8,1016.02,0,0,0,0,0.037422
2020/12/27 04:22:00.000,n,207,0.72,0,1.44,19.2,78.9,1016.02,0,0,0,0,0.043526
2020/12/27 04:23:00.000,n,346,1.44,0.36,2.16,19.2,79,1016.02,0,0,0,0,0.041771
2020/12/27 04:24:00.000,n,222,1.08,0.72,1.08,19.2,79.1,1016.12,0,0,0,0,0.042648
2020/12/27 04:25:00.000,n,218,1.44,1.08,1.8,19.2,79.1,1016.12,0,0,0,0,0.046997
2020/12/27 04:26:00.000,n,262,2.88,1.8,3.96,19.2,79,1016.12,0,0,0,0,0.053101
2020/12/27 04:27:00.007,n,238,1.8,1.08,2.16,19.2,79.2,1016.22,0,0,0,0,0.059166
2020/12/27 04:28:00.004,n,280,3.6,2.88,4.32,19.2,79.8,1016.22,0,0,0,0,0.067024
2020/12/27 04:29:00.001,n,170,1.44,1.08,1.44,19.2,79.6,1016.22,0,0,0,0,0.074844
2020/12/27 04:30:00.014,n,270,3.6,2.88,4.32,19.2,79.4,1016.22,0,0,0,0,0.082664
2020/12/27 04:31:00.000,n,235,2.16,1.8,2.88,19.2,79.3,1016.22,0,0,0,0,0.096626
2020/12/27 04:32:00.000,n,271,2.16,1.8,2.16,19.2,79.3,1016.22,0,0,0,0,0.113983
2020/12/27 04:33:00.000,n,249,2.16,1.8,2.52,19.2,79.3,1016.22,0,0,0,0,0.146179
2020/12/27 04:34:00.004,n,297,1.44,1.08,2.52,19.1,79.4,1016.22,0,0,0,0,0.191422
2020/12/27 04:35:00.001,n,36,1.44,1.08,1.8,19.2,79.6,1016.22,0,0,0,0,0.240974
2020/12/27 04:36:00.000,n,115,0.36,0,0.36,19.2,79.5,1016.22,0,0,0,0,0.288773
2020/12/27 04:37:00.012,n,209,1.44,0.72,1.8,19.2,79.4,1016.22,0,0,0,0,0.369606
2020/12/27 04:38:00.009,n,72,1.08,0.36,2.16,19.2,79.4,1016.22,0,0,0,0,0.461655
2020/12/27 04:39:00.007,n,122,0.72,0.72,1.08,19.2,79.3,1016.32,0,0,0,0,0.572777
2020/12/27 04:40:00.000,n,208,0.36,0.36,0.72,19.2,79.3,1016.32,0,0,0,0,0.708694
2020/12/27 04:41:00.000,n,11,0.72,0.36,1.08,19.2,79.2,1016.32,0,0,0,0,0.84362
2020/12/27 04:42:00.000,n,241,1.44,0.72,2.16,19.2,79.3,1016.32,0,0,0,0,0.989685
2020/12/27 04:43:00.000,n,196,1.44,0.72,2.88,19.1,79.1,1016.32,0,0,0,0,1.135635
2020/12/27 04:44:00.008,n,197,1.8,1.8,2.16,19.1,79,1016.32,0,0,0,0,1.310997
2020/12/27 04:45:00.005,n,284,1.8,1.08,2.52,19.1,79.4,1016.32,0,0,0,0,1.487045
2020/12/27 04:46:00.002,n,207,2.52,2.16,2.88,19.1,79.1,1016.32,0,0,0,0,1.695786
2020/12/27 04:47:00.000,n,171,3.6,1.08,4.68,19.1,78.9,1016.32,0,0,0,0,1.939735
2020/12/27 04:48:00.012,n,176,1.44,1.08,1.8,19.1,78.9,1016.32,0,0,0,0,2.228165
2020/12/27 04:49:00.000,n,172,3.24,2.52,4.32,19.1,78.8,1016.42,0,0,0,0,2.582207
2020/12/27 04:50:00.000,n,151,3.24,1.44,4.32,19.1,78.7,1016.42,0,0,0,0,2.984772
2020/12/27 04:51:00.004,n,245,1.8,1.08,2.16,19.1,78.8,1016.42,0,0,0,0,3.370018
2020/12/27 04:52:00.001,n,266,1.44,0.72,2.88,19.1,79,1016.42,0,0,0,0,3.69503
2020/12/27 04:53:00.000,n,74,2.16,1.8,2.52,19.1,79.1,1016.42,0,0,0,0,3.9468
2020/12/27 04:54:00.000,n,274,0.72,0.36,1.08,19.1,79,1016.52,0,0,0,0,4.228287
2020/12/27 04:55:00.008,n,75,1.08,0.72,1.44,19.1,79,1016.52,0,0,0,0,4.606323
2020/12/27 04:56:00.005,n,347,1.08,0.72,1.44,19.2,79.3,1016.52,0,0,0,0,5.2277